This demonstration page uses our WeatherBlox Daily Observations layout. Learn more.

Left ArrowRight Arrow

40.92945, -100.16068

Hourly Observations for June 12, 2020

Temp ( °F °C ) Dew Point ( °F °C ) Humidity (%) Winds ( mph kmh ) Pressure ( in mb ) Visibility ( mi km ) Precip ( " mm )
12:15 am 00:15 Clear 62 16.7 55 12.6 77 77 ENE 6 9 30.23 1024 10 16.0934 0 0
12:35 am 00:35 Clear 61 16.3 55 12.6 79 79 E 6 9 30.23 1024 10 16.0934 0 0
12:55 am 00:55 Clear 61 15.9 55 12.5 80 80 E 6 9 30.24 1024 10 16.0934 0 0
1:15 am 01:15 Clear 61 16.3 54 12.4 78 78 E 5 7 30.23 1024 10 16.0934 0 0
1:35 am 01:35 Clear 62 16.6 54 12.1 75 75 E 7 11 30.23 1024 10 16.0934 0 0
1:55 am 01:55 Clear 62 16.5 54 12 75 75 E 7 11 30.22 1023 10 16.0934 0 0
2:15 am 02:15 Clear 61 16 53 11.7 76 76 E 6 9 30.24 1024 10 16.0934 0 0
2:35 am 02:35 Clear 59 15.1 53 11.6 80 80 Calm 30.24 1024 10 16.0934 0 0
2:55 am 02:55 Clear 57 13.8 53 11.9 88 88 Calm 30.26 1025 10 16.0934 0 0
3:15 am 03:15 Clear 59 14.9 53 11.5 80 80 Calm 30.25 1024 10 16.0934 0 0
3:35 am 03:35 Clear 57 13.7 54 12 90 90 Calm 30.26 1025 10 16.0934 0 0
3:55 am 03:55 Clear 58 14.3 54 12 86 86 Calm 30.25 1024 10 16.0934 0 0
4:15 am 04:15 Clear 56 13.2 52 11.3 88 88 Calm 30.26 1025 10 16.0934 0 0
4:35 am 04:35 Clear 56 13.4 51 10.7 84 84 Calm 30.26 1025 10 16.0934 0 0
4:55 am 04:55 Clear 55 12.7 52 10.9 89 89 Calm 30.27 1025 10 16.0934 0 0
5:15 am 05:15 Clear 57 13.9 51 10.5 80 80 Calm 30.25 1024 10 16.0934 0 0
5:35 am 05:35 Clear 55 12.9 52 11 88 88 Calm 30.25 1025 10 16.0934 0 0
5:55 am 05:55 Clear 53 11.8 50 10.2 90 90 Calm 30.26 1025 10 16.0934 0 0
6:15 am 06:15 Sunny 53 11.8 50 10.2 90 90 Calm 30.26 1025 10 16.0934 0 0
6:35 am 06:35 Sunny 53 11.7 51 10.6 93 93 Calm 30.27 1025 10 16.0934 0 0
6:55 am 06:55 Sunny 55 12.5 53 11.4 93 93 Calm 30.26 1025 10 16.0934 0 0
7:15 am 07:15 Sunny 57 14 55 12.9 93 93 Calm 30.25 1025 10 16.0934 0 0
7:35 am 07:35 Sunny 60 15.8 57 13.9 89 89 Calm 30.24 1024 10 16.0934 0 0
7:55 am 07:55 Sunny 64 17.5 56 13.3 77 77 Calm 30.22 1023 10 16.0934 0 0
8:15 am 08:15 Sunny 65 18.5 56 13.1 71 71 Calm 30.21 1023 10 16.0934 0 0
8:35 am 08:35 Sunny 67 19.4 57 13.9 71 71 Calm 30.21 1023 10 16.0934 0 0
8:55 am 08:55 Sunny 69 20.7 57 13.7 64 64 SE 6 9 30.2 1023 10 16.0934 0 0
9:15 am 09:15 Sunny 71 21.4 58 14.2 64 64 Calm 30.19 1022 10 16.0934 0 0
9:35 am 09:35 Sunny 72 22.1 58 14.2 61 61 SSW 3 6 30.19 1022 10 16.0934 0 0
9:55 am 09:55 Sunny 73 23 58 14.3 58 58 Calm 30.19 1022 10 16.0934 0 0
10:15 am 10:15 Sunny 76 24.3 60 15.8 59 59 Calm 30.16 1021 10 16.0934 0 0
10:35 am 10:35 Sunny 77 24.9 60 15.6 56 56 E 3 6 30.16 1021 10 16.0934 0 0
10:55 am 10:55 Sunny 79 26 60 15.8 53 53 ESE 5 7 30.15 1021 10 16.0934 0 0
11:15 am 11:15 Sunny 80 26.5 61 15.9 52 52 ESE 7 11 30.14 1021 10 16.0934 0 0
11:35 am 11:35 Sunny 81 27.4 63 17.4 54 54 E 8 13 30.13 1020 10 16.0934 0 0
11:55 am 11:55 Sunny 82 27.6 62 16.5 51 51 SE 10 17 30.13 1020 10 16.0934 0 0
12:15 pm 12:15 Sunny 83 28.1 61 16.3 49 49 ESE 8 13 30.11 1020 10 16.0934 0 0
12:35 pm 12:35 Sunny 84 28.8 59 15.1 43 43 ESE 8 13 30.12 1020 10 16.0934 0 0
12:55 pm 12:55 Sunny 84 29 58 14.7 42 42 ESE 7 11 30.11 1019 10 16.0934 0 0
1:15 pm 13:15 Sunny 84 29 54 12.3 36 36 E 8 13 30.11 1019 10 16.0934 0 0
1:35 pm 13:35 Sunny 85 29.5 57 13.8 38 38 E 10 17 30.1 1019 10 16.0934 0 0
1:55 pm 13:55 Sunny 85 29.3 56 13.1 37 37 ESE 14 22 30.09 1019 10 16.0934 0 0
2:15 pm 14:15 Sunny 85 29.6 56 13.3 37 37 ESE 10 17 30.08 1019 10 16.0934 0 0
2:35 pm 14:35 Sunny 85 29.4 58 14.4 40 40 ESE 10 17 30.08 1019 10 16.0934 0 0
2:55 pm 14:55 Sunny 85 29.6 55 12.8 36 36 ESE 9 15 30.07 1018 10 16.0934 0 0
3:15 pm 15:15 Sunny 86 30.1 53 11.4 32 32 ESE 15 24 30.06 1018 10 16.0934 0 0
3:35 pm 15:35 Sunny 86 30.2 54 12.4 33 33 ESE 15 24 30.05 1017 10 16.0934 0 0
3:55 pm 15:55 Sunny 86 30 52 11.2 31 31 E 14 22 30.05 1018 10 16.0934 0 0
4:15 pm 16:15 Sunny 87 30.6 50 10 28 28 SE 16 26 30.03 1017 10 16.0934 0 0
4:35 pm 16:35 Sunny 87 30.6 47 8.3 25 25 SSE 12 19 30.02 1017 10 16.0934 0 0
4:55 pm 16:55 Sunny 86 30.2 49 9.4 27 27 SE 10 17 30.03 1017 10 16.0934 0 0
5:15 pm 17:15 Sunny 86 30 48 8.8 27 27 ESE 13 20 30.02 1017 10 16.0934 0 0
5:35 pm 17:35 Sunny 87 30.3 47 8.6 26 26 SE 14 22 30.02 1016 10 16.0934 0 0
5:55 pm 17:55 Sunny 85 29.6 48 8.9 27 27 ESE 13 20 30.01 1016 10 16.0934 0 0
6:15 pm 18:15 Sunny 86 30 47 8.2 26 26 SE 13 20 30.01 1016 10 16.0934 0 0
6:35 pm 18:35 Sunny 85 29.3 48 8.7 28 28 SE 10 17 30.01 1016 10 16.0934 0 0
6:55 pm 18:55 Sunny 85 29.2 47 8.6 28 28 SE 14 22 30.01 1016 10 16.0934 0 0
7:15 pm 19:15 Sunny 83 28.4 51 10.7 33 33 ESE 9 15 30.02 1017 10 16.0934 0 0
7:35 pm 19:35 Sunny 83 28.2 50 9.9 32 32 SE 12 19 30.02 1017 10 16.0934 0 0
7:55 pm 19:55 Sunny 81 27.2 51 10.6 35 35 SE 9 15 30.03 1017 10 16.0934 0 0
8:15 pm 20:15 Sunny 79 26.2 53 11.5 40 40 SE 10 17 30.03 1017 10 16.0934 0 0
8:35 pm 20:35 Sunny 78 25.5 52 11.3 41 41 SE 8 13 30.04 1017 10 16.0934 0 0
8:55 pm 20:55 Sunny 75 24 53 11.8 46 46 SSE 8 13 30.06 1018 10 16.0934 0 0
9:15 pm 21:15 Clear 71 21.6 56 13.2 59 59 SSE 6 9 30.08 1019 10 16.0934 0 0
9:35 pm 21:35 Clear 71 21.6 53 11.9 54 54 SE 7 11 30.08 1019 10 16.0934 0 0
9:55 pm 21:55 Clear 70 21 53 11.7 55 55 SSE 7 11 30.08 1019 10 16.0934 0 0
10:15 pm 22:15 Clear 69 20.3 54 12 59 59 SSE 8 13 30.1 1019 10 16.0934 0 0
10:35 pm 22:35 Clear 70 21.3 55 12.7 58 58 SE 9 15 30.09 1019 10 16.0934 0 0
10:55 pm 22:55 Clear 72 22 55 13 57 57 SSE 9 15 30.08 1019 10 16.0934 0 0
11:15 pm 23:15 Clear 68 20 56 13.6 67 67 SSE 9 15 30.1 1019 10 16.0934 0 0
11:35 pm 23:35 Clear 67 19.6 56 13.5 68 68 SSE 8 13 30.1 1019 10 16.0934 0 0
11:55 pm 23:55 Clear 65 18.1 56 13.5 75 75 SSE 7 11 30.11 1020 10 16.0934 0 0

Powered by AerisWeather